Location: Capannuccia
(43.7000°N, 11.3000°E)
Time: 13:12:48
(UTC+00:00)

STARLINK-1312 - Pass Details

Date: 02 October 2020
Orbit: 549 x 550 km, 53.0° (Epoch: 27 October)

Event Time Altitude Azimuth Distance (km) Brightness Sun altitude
Exits shadow 04:08:17 - 205° (SSW) 2,476 6.6 -12.7°
Reaches altitude 10° 04:10:05 10° 197° (SSW) 1,812 6.0 -12.3°
Maximum altitude 04:13:44 31° 134° (SE) 972 5.3 -11.7°
Drops below altitude 10° 04:17:24 10° 72° (ENE) 1,822 7.7 -11.0°
Sets 04:19:49 0° 62° (ENE) 2,719 8.5 -10.6°
